AO-07 1 07530U 74089B 14338.19996713 -.00000041 00000-0 14384-4 0 1348 2 07530 101.4953 314.5647 0011823 324.8248 103.4970 12.53609879832823 FO-29 1 24278U 96046B 14338.31173648 -.00000029 00000-0 72278-5 0 5326 2 24278 098.5182 328.7077 0350021 216.0760 252.5700 13.53038052903671 SO-33 1 25509U 98061B 14338.18155547 .00000565 00000-0 98159-4 0 8946 2 25509 031.4334 277.0510 0348880 163.9950 337.6261 14.29762159841497 RS-22 1 27939U 03042A 14338.80711522 .00001894 00000-0 35697-3 0 990 2 27939 097.8192 144.6499 0012254 288.0500 071.9376 14.65579485597718 HO-68 1 36122U 09072B 14338.74417351 -.00000060 00000-0 -43517-4 0 1795 2 36122 100.2261 025.2422 0007362 204.4499 155.6263 13.16320925238873 AO-73 1 39444U 13066AE 14338.14660213 .00003348 00000-0 44380-3 0 3233 2 39444 097.7582 042.9216 0061976 051.9601 308.7182 14.79170716 54583 EO-79 1 40025U 14033R 14338.70270693 .00004611 00000-0 53231-3 0 4966 2 40025 097.9684 233.6165 0014391 098.5704 261.7146 14.86043145 24901 UO-11 1 14781U 84021B 14338.20552180 .00001176 00000-0 15487-3 0 6808 2 14781 097.8303 034.8377 0008084 356.2639 003.8513 14.81960612653146 AO-16 1 20439U 90005D 14337.43980501 .00000269 00000-0 11524-3 0 1850 2 20439 098.5240 271.7048 0011144 025.4900 107.5270 14.32442486298715 LO-19 1 20442U 90005G 14338.35416619 .00000272 00000-0 11608-3 0 1194 2 20442 098.4952 272.7467 0011753 010.8945 349.2491 14.32641006299043 AO-27 1 22825U 93061C 14338.47275609 .00000193 00000-0 92227-4 0 8344 2 22825 098.6848 283.8126 0009083 152.9991 344.9271 14.29794685105113 IO-26 1 22826U 93061D 14338.47518412 .00000217 00000-0 10114-3 0 5918 2 22826 098.6788 284.0087 0009724 146.0541 214.1265 14.30102554105259 GO-32 1 25397U 98043D 14338.49148212 .00000102 00000-0 63410-4 0 5122 2 25397 098.4944 290.3260 0001974 139.8148 356.6512 14.23491866852099 NO-44 1 26931U 01043C 14337.91330224 .00000175 00000-0 99207-4 0 7678 2 26931 067.0525 320.7602 0007417 270.9487 089.0764 14.30208413687870 SO-50 1 27607U 02058C 14338.45393168 .00002266 00000-0 32944-3 0 5914 2 27607 064.5571 073.1738 0066738 327.5033 032.2449 14.74196934642570 CO-55 1 27844U 03031E 14338.25189009 .00000399 00000-0 20159-3 0 841 2 27844 098.6971 344.5763 0010542 140.5878 279.3213 14.21640525592748 CO-57 1 27848U 03031J 14338.36459851 .00000354 00000-0 18212-3 0 244 2 27848 098.7067 344.4914 0010294 146.4405 269.6559 14.21310204592676 AO-51 1 28375U 04025K 14338.41340045 .00000282 00000-0 96421-4 0 63 2 28375 098.2723 279.6994 0082770 197.0737 162.7664 14.41518663548426 CP3 1 31129U 07012N 14337.49787234 .00001707 00000-0 38060-3 0 9140 2 31129 097.9550 307.1310 0097052 202.7766 275.0121 14.55209304404651 CO-65 1 32785U 08021C 14338.03584863 .00002698 00000-0 31435-3 0 1314 2 32785 097.6780 023.5967 0013353 356.5905 065.6469 14.85991340357245 PRISM 1 33493U 09002B 14338.78022745 .00008959 00000-0 90722-3 0 5469 2 33493 098.2523 161.9279 0016411 247.1517 112.7963 14.91099710317582 SOHLA-1 1 33496U 09002E 14338.38440303 .00000857 00000-0 14784-3 0 5296 2 33496 098.1894 099.9620 0007316 069.6255 326.4025 14.71059917314533 TISAT-1 1 36799U 10035E 14338.23806841 .00005321 00000-0 60068-3 0 7569 2 36799 098.0187 071.6143 0014393 124.6187 287.9898 14.86895379237979 STUDSAT 1 36801U 10035G 14336.80415644 .00029987 00000-0 22644-2 0 9452 2 36801 098.0547 082.0306 0005872 087.2305 064.9821 15.02327791238380 ALMASAT-1 1 38078U 12006B 14338.65477524 .00050087 34663-5 96660-3 0 2231 2 38078 069.4673 005.0087 0543086 164.3969 197.4709 14.62637672146436 XATCOBEO 1 38082U 12006F 14243.34478676 .13583328 43697-5 37939-3 0 5637 2 38082 069.3815 097.0364 0033293 225.1799 135.4582 16.41261006136239 CUBEBUG-1 1 39153U 13018D 14338.28914901 .00003785 00000-0 52568-3 0 6930 2 39153 098.0332 058.2034 0018256 159.2900 200.9055 14.78379950 86679 ESTCUBE-1 1 39161U 13021C 14338.77900332 .00002777 00000-0 46555-3 0 7233 2 39161 098.0875 058.3660 0009293 208.5411 151.5286 14.70515362 84667 DUCHIFAT-1 1 40021U 14033M 14338.67992415 .00006118 00000-0 69714-3 0 4979 2 40021 097.9685 233.6813 0015036 099.2267 261.0667 14.86443472 24893 NANOSATCBR1 1 40024U 14033Q 14338.69475209 .00005510 00000-0 63198-3 0 4897 2 40024 097.9670 233.6268 0014443 098.0090 262.2784 14.86228515 24898 DTUSAT-2 1 40030U 14033W 14338.27335541 .00004321 00000-0 50402-3 0 4851 2 40030 097.9663 233.0697 0014003 094.0378 266.2439 14.85653008 24837 ANTELSAT 1 40034U 14033AA 14338.67610727 .00003807 00000-0 59861-3 0 4970 2 40034 097.9631 229.8441 0062107 023.1632 337.2358 14.71829702 24672 MET-2/21 1 22782U 93055A 14337.65248355 .00000035 00000-0 17638-4 0 2393 2 22782 082.5501 038.8400 0023377 147.7159 016.2837 13.83753938 73550 OKEAN-4 1 23317U 94066A 14338.67716719 .00002641 00000-0 29842-3 0 7252 2 23317 082.5399 268.0316 0018586 253.0227 173.3939 14.86047600 88422 NOAA-14 1 23455U 94089A 14338.46632015 .00000005 00000-0 25760-4 0 52 2 23455 098.7683 058.7985 0008453 273.6001 146.8263 14.14006835 28016 NOAA-15 1 25338U 98030A 14338.55821573 .00000208 00000-0 10680-3 0 4438 2 25338 098.7633 332.1865 0010822 019.6998 129.3734 14.25520773861114 RESURS 1 25394U 98043A 14337.85937939 .00000060 00000-0 44138-4 0 8223 2 25394 098.4387 295.2882 0002476 114.5165 275.4186 14.24422058852473 FENGYUN1 1 25730U 99025A 14337.53546225 .00003801 00000-0 20732-2 0 3107 2 25730 098.9270 297.7439 0022205 353.2829 071.8293 14.12573439801422 OKEAN-0 1 25860U 99039A 14338.54367100 .00001117 00000-0 17126-3 0 4328 2 25860 098.0680 301.6474 0001214 119.5557 348.6500 14.75622351827278 NOAA-16 1 26536U 00055A 14338.37643537 .00000115 00000-0 85744-4 0 9426 2 26536 098.9697 039.2956 0011255 067.2043 293.0317 14.13059187732143 NOAA-17 1 27453U 02032A 14338.56263849 .00000120 00000-0 68827-4 0 8324 2 27453 098.3244 329.3902 0012208 039.6030 320.6039 14.24826482646948 NOAA-18 1 28654U 05018A 14338.53070019 .00000290 00000-0 18336-3 0 3554 2 28654 099.1676 321.6173 0014963 143.7621 005.2831 14.12109081491601 NOAA-19 1 33591U 09005A 14338.52206889 .00000150 00000-0 10699-3 0 4858 2 33591 098.9665 283.2077 0014015 003.4525 127.8032 14.11823158300027 HUBBLE 1 20580U 90037B 14338.63623843 .00004206 00000-0 26736-3 0 1708 2 20580 028.4717 356.0619 0002784 311.0334 343.8095 15.06330269150432 ISS 1 25544U 98067A 14338.77727890 .00018067 00000-0 30361-3 0 5079 2 25544 051.6475 333.7529 0007615 097.5815 069.4442 15.51802699917794 CO-58 1 28895U 05043F 14337.52795630 .00001873 00000-0 37938-3 0 9362 2 28895 097.8216 170.5449 0017026 191.7974 168.2832 14.62275578484992 FALCON 1 30776U 07006E 14338.57193513 .00015380 00000-0 70851-3 0 182 2 30776 035.4265 136.8802 0002909 001.7529 059.7288 15.19502617426639 MAST 1 31126U 07012K 14338.51317781 .00000817 00000-0 18695-3 0 2187 2 31126 097.9362 310.7416 0091787 182.2389 324.1331 14.55634218405160 CAPE1 1 31130U 07012P 14338.45943768 .00001131 00000-0 25711-3 0 2249 2 31130 097.9577 307.5714 0097800 201.3384 158.3724 14.54931085404565 COMPASS 1 32787U 08021E 14338.05397790 .00005809 00000-0 62027-3 0 1160 2 32787 097.6803 026.6220 0012996 345.4737 014.6105 14.89119975357455 AAUSAT2 1 32788U 08021F 14338.10601722 .00005890 00000-0 61577-3 0 1035 2 32788 097.6817 027.8786 0012332 343.7535 016.3286 14.89973460357537 DO-64 1 32789U 08021G 14338.21870163 .00012601 00000-0 11240-2 0 1483 2 32789 097.7014 036.2621 0010863 322.3696 073.5982 14.96065273357897 CO-66 1 32791U 08021J 14337.83776076 .00004000 00000-0 44595-3 0 989 2 32791 097.6801 024.7988 0013809 351.1325 008.9645 14.87527254357264 RS-30 1 32953U 08025A 14338.78153481 .00000010 00000-0 -13620-7 0 5259 2 32953 082.5024 095.1404 0019548 143.9445 216.2965 12.43053340296457 METEOR-M 1 35865U 09049A 14338.72385384 .00000198 00000-0 10869-3 0 1355 2 35865 098.5280 020.7730 0002196 342.7466 017.3639 14.21960882270571 RS-38 1 35869U 09049E 14338.72453838 .00000135 00000-0 79808-4 0 392 2 35869 098.5219 020.4962 0004292 332.5759 027.5191 14.22250182270619 JUGNU 1 37839U 11058B 14338.24305763 .00000532 00000-0 14226-3 0 7462 2 37839 019.9619 304.2336 0019206 058.1560 068.1193 14.12384607162622 SRMSAT 1 37841U 11058D 14338.41183045 .00000494 00000-0 12767-3 0 7501 2 37841 019.9729 325.9572 0012004 354.2459 160.5689 14.10411898162421 RAX-2 1 37853U 11061D 14338.31425958 .00013053 00000-0 84884-3 0 9796 2 37853 101.7029 089.3392 0208547 283.7565 142.1572 14.92073828168005 AUBIESAT 1 37854U 11061E 14338.53754924 .00014465 00000-0 90707-3 0 9765 2 37854 101.7084 092.1792 0205292 279.2027 140.3107 14.93701841168110 HRBE 1 37855U 11061F 14338.26640873 .00013583 00000-0 86566-3 0 9974 2 37855 101.7087 090.8497 0207839 281.8916 075.9053 14.92834042168028 RS-39 1 38051U 11062C 14288.65876392 .70201582 12497-4 27925-2 0 413 2 38051 051.5964 324.1908 0006422 269.6897 186.8903 16.43533377153081 E-STAR 1 38079U 12006C 14338.88664367 .00319492 31527-4 16389-2 0 881 2 38079 069.4310 249.3348 0186412 102.6535 259.5505 15.60088059149512 GOLIAT 1 38085U 12006J 14338.86645374 .00225693 16009-4 15273-2 0 5987 2 38085 069.4365 262.0055 0231675 108.3494 355.5086 15.46504479149182 HORYU-2 1 38340U 12025D 14338.40864725 .00003693 00000-0 57833-3 0 365 2 38340 098.2873 298.7605 0012302 003.2164 356.9120 14.73304880136844 RS-40 1 38735U 12041C 14338.82231633 .00000040 00000-0 21992-3 0 8293 2 38735 082.4743 181.1565 0016518 243.8267 116.1117 12.42564597106770 PROITERES 1 38756U 12047B 14338.78990620 .00002030 00000-0 30693-3 0 4672 2 38756 098.2234 069.8730 0012121 194.2616 165.8251 14.75345854120331 BEESAT-3 1 39134U 13015E 14337.35199170 .00016811 00000-0 10789-2 0 7827 2 39134 064.8745 322.2658 0036033 280.5900 079.1163 15.08072734 89127 BEESAT-2 1 39136U 13015G 14337.36701748 .00014519 00000-0 95894-3 0 7622 2 39136 064.8750 323.3197 0036343 280.5216 079.1811 15.07081431 89111 LO-75 1 39382U 13064C 14295.69194059 .07301741 00000-0 36367-2 0 4875 2 39382 040.4713 030.2705 0002289 341.7175 018.4586 16.19795749470823 ZACUBE-1 1 39417U 13066B 14337.85309216 .00003361 00000-0 44899-3 0 4807 2 39417 097.7582 042.5359 0062470 053.3164 307.3766 14.78820547 55764 TRITON-1 1 39427U 13066M 14337.43413515 .00002276 00000-0 38279-3 0 3314 2 39427 097.7450 034.4840 0118370 072.0109 289.3955 14.65956026 55185 DELFIN3XT 1 39428U 13066N 14338.06200925 .00004184 00000-0 71287-3 0 3354 2 39428 097.7445 033.8081 0127910 073.4290 288.0917 14.64228989 55189 GOMX-1 1 39430U 13066Q 14338.82354872 .00002572 00000-0 48817-3 0 430 2 39430 097.7391 030.7556 0156539 081.6503 280.2395 14.57387978 55069 MO-76 1 39436U 13066W 14337.68145002 .00029279 00000-0 25860-2 0 4240 2 39436 097.7653 049.0720 0023699 048.3140 312.0104 14.96087985 56150 LO-74 1 39440U 13066AA 14337.44678328 .00002913 00000-0 42892-3 0 3285 2 39440 097.7538 039.1142 0084405 060.5180 300.4415 14.73710065 55508 PUCPSAT-1 1 39442U 13066AC 14338.26960268 .00005596 00000-0 62104-3 0 3283 2 39442 097.7646 047.7020 0034895 047.9814 312.4363 14.87180316 54881 SHINAISAT 1 39572U 14009A 14328.13084988 .28848087 76253-5 66603-3 0 4474 2 39572 064.9728 197.0096 0013534 259.7861 100.1802 16.45181032 42403 TEIKYOSAT 1 39576U 14009E 14297.85867254 .09345816 76764-5 25176-3 0 4374 2 39576 064.9818 300.5833 0008491 317.3597 044.3862 16.45008906 37698 CO-77 1 39577U 14009F 14244.78324653 .10543803 76292-5 32273-3 0 3795 2 39577 064.9920 123.7668 0014904 269.7208 091.1897 16.43552757 29380 SPROUT 1 39770U 14029E 14338.11991706 .00003161 00000-0 39377-3 0 2115 2 39770 097.8733 072.7198 0011260 117.3431 242.8907 14.83133737 28719 POPSAT-HIP1 1 40028U 14033U 14338.72108346 .00004556 00000-0 52795-3 0 5161 2 40028 097.9700 233.6682 0015899 095.9949 264.3082 14.85876582 24897 EO-80 1 40032U 14033Y 14338.68016826 .00004344 00000-0 50712-3 0 5007 2 40032 097.9667 233.4852 0013727 091.5005 268.7802 14.85623259 24893 VELOX-1 1 40057U 14034E 14338.75649490 .00004556 00000-0 68840-3 0 5053 2 40057 098.2373 048.6367 0012365 137.1250 223.0920 14.74730815 23216 DAURIA DX 1 1 40071U 14037C 14338.77446716 .00002127 00000-0 28943-3 0 4770 2 40071 098.3838 037.0046 0009419 138.0245 222.1686 14.79865065 22034 UKUBE-1 1 40074U 14037F 14338.74258611 .00004481 00000-0 58411-3 0 4784 2 40074 098.3848 037.2271 0005574 143.8304 216.3291 14.81097360 22044 CHASQUI-1 1 40117U 98067ET 14338.86633039 .00243280 00000-0 16918-2 0 3305 2 40117 051.6409 327.0276 0010634 058.4134 013.9156 15.73046689 16861 HODOYOSHI-1 1 40299U 14070B 14338.87408449 .00008597 00000-0 43329-3 0 926 2 40299 097.4743 057.9309 0014974 090.1536 013.1172 15.17305662 4322 CHUBUSAT-1 1 40300U 14070C 14338.84896854 .00009291 00000-0 49443-3 0 933 2 40300 097.4720 057.8062 0024663 089.6175 017.5801 15.15193657 4316 QSAT-EOS 1 40301U 14070D 14338.76343354 .00016302 00000-0 91820-3 0 990 2 40301 097.4688 057.6015 0036073 088.7235 009.7114 15.12728624 4305 TSUBAME 1 40302U 14070E 14338.85502010 .00011236 00000-0 67011-3 0 926 2 40302 097.4659 057.5825 0046736 089.2209 271.4311 15.10381958 4306 /EX
